EW5800 Weather Reports


Display with metric or nautical units.
time (UTC)temp
F
wind
direction
speed
MPH
gust
MPH
rain 1hr
in
rain 24hr
in
rain mn
in
humidity
%
barometer
mb
20260902003001 68 83 1.0 4.0 0.00 0.00 0.00 64 1007.0
20260902001608 68 63 1.0 5.0 0.00 0.00 0.00 64 1007.1
20260902000129 69 79 0.0 3.0 0.00 0.00 0.00 66 1007.1
20260901234606 69 203 0.0 4.0 0.00 0.00 0.00 65 1007.1
20260901233107 69 225 0.0 3.0 0.00 0.00 0.00 66 1006.9
20260901231603 69 127 0.0 3.0 0.00 0.00 0.00 67 1006.9
20260901224556 70 92 0.0 5.0 0.00 0.00 0.00 67 1007.0
20260901223054 70 122 0.0 6.0 0.00 0.00 0.00 66 1007.0
20260901221554 71 107 0.0 4.0 0.00 0.00 0.00 65 1007.2
20260901220053 71 207 0.0 8.0 0.00 0.00 0.00 64 1007.2
20260901214604 73 294 0.0 8.0 0.00 0.00 0.00 60 1007.3
20260901213134 74 115 1.0 4.0 0.00 0.00 0.00 59 1007.2
20260901211551 74 197 1.0 4.0 0.00 0.00 0.00 59 1007.2
20260901210050 74 242 1.0 6.0 0.00 0.00 0.00 55 1007.2
20260901204550 75 186 1.0 5.0 0.00 0.00 0.00 55 1007.2
20260901203115 75 124 0.0 3.0 0.00 0.00 0.00 55 1007.2
20260901201556 76 141 0.0 3.0 0.00 0.00 0.00 54 1007.3
20260901200047 75 122 0.0 3.0 0.00 0.00 0.00 55 1007.3
20260901194547 76 208 1.0 5.0 0.00 0.00 0.00 56 1007.5
20260901193043 74 65 0.0 5.0 0.00 0.00 0.00 60 1007.4
20260901191543 74 169 0.0 5.0 0.00 0.00 0.00 61 1007.5
20260901190037 72 159 0.0 7.0 0.00 0.00 0.00 63 1007.6
20260901184537 73 51 2.0 5.0 0.00 0.00 0.00 63 1007.6
20260901183036 71 186 2.0 8.0 0.00 0.00 0.00 66 1007.7
20260901181532 71 115 2.0 6.0 0.00 0.00 0.00 67 1007.8
20260901180030 70 202 1.0 5.0 0.00 0.00 0.00 67 1007.9
20260901174526 69 182 0.0 5.0 0.00 0.00 0.00 71 1008.0
20260901173024 67 181 0.0 3.0 0.00 0.00 0.00 72 1008.0
20260901171521 66 139 0.0 6.0 0.00 0.00 0.00 75 1008.0
20260901170017 65 75 0.0 4.0 0.00 0.00 0.00 78 1008.0
20260901164514 64 57 0.0 3.0 0.00 0.00 0.00 81 1008.2
20260901163014 63 66 1.0 4.0 0.00 0.00 0.00 83 1008.2
20260901161508 62 65 1.0 6.0 0.00 0.00 0.00 84 1008.3
20260901160009 61 71 0.0 4.0 0.00 0.00 0.00 89 1008.4
20260901154502 60 42 0.0 2.0 0.00 0.00 0.00 90 1008.3
20260901153116 59 65 0.0 1.0 0.00 0.00 0.00 90 1008.2
20260901151555 58 209 0.0 0.0 0.00 0.00 0.00 91 1008.1
20260901150053 57 155 0.0 0.0 0.00 0.00 0.00 91 1007.9
20260901144553 56 48 0.0 1.0 0.00 0.00 0.00 91 1007.9
20260901143051 55 310 0.0 0.0 0.00 0.00 0.00 92 1007.8
20260901141552 54 310 0.0 0.0 0.00 0.00 0.00 92 1007.5
20260901140048 54 310 0.0 0.0 0.00 0.00 0.00 92 1007.6
20260901134547 55 310 0.0 0.0 0.00 0.00 0.00 91 1007.5
20260901133046 55 309 0.0 0.0 0.00 0.00 0.00 92 1007.5
20260901131545 55 309 0.0 0.0 0.00 0.00 0.00 92 1007.3
20260901130044 55 310 0.0 0.0 0.00 0.00 0.00 91 1007.4
20260901124544 55 310 0.0 0.0 0.00 0.00 0.00 91 1007.4
20260901123043 55 309 0.0 0.0 0.00 0.00 0.00 91 1007.4
20260901121541 55 310 0.0 0.0 0.00 0.00 0.00 91 1007.5
20260901120040 55 310 0.0 0.0 0.00 0.00 0.00 91 1007.5
20260901114540 55 310 0.0 0.0 0.00 0.00 0.00 91 1007.5
20260901113039 55 310 0.0 0.0 0.00 0.00 0.00 91 1007.6
20260901111536 55 310 0.0 0.0 0.00 0.00 0.00 91 1007.4
20260901110037 55 310 0.0 0.0 0.00 0.00 0.00 91 1007.3
20260901104540 55 310 0.0 0.0 0.00 0.00 0.00 91 1007.3
20260901103034 55 310 0.0 0.0 0.00 0.00 0.00 91 1007.3
20260901101538 55 310 0.0 0.0 0.00 0.00 0.00 91 1007.4
20260901100030 56 310 0.0 0.0 0.00 0.00 0.00 91 1007.3
20260901094536 56 310 0.0 0.0 0.00 0.00 0.00 91 1007.3
20260901093029 56 310 0.0 0.0 0.00 0.00 0.00 91 1007.3
20260901091526 56 310 0.0 0.0 0.00 0.00 0.00 91 1007.3
20260901090026 57 310 0.0 0.0 0.00 0.00 0.00 91 1007.3
20260901084525 57 310 0.0 0.0 0.00 0.00 0.00 91 1007.3
20260901083024 57 310 0.0 0.0 0.00 0.00 0.00 91 1007.3
20260901081525 57 310 0.0 0.0 0.00 0.00 0.00 91 1007.3
20260901080021 58 310 0.0 0.0 0.00 0.00 0.00 90 1007.1
20260901074518 59 310 0.0 0.0 0.00 0.00 0.00 90 1007.0
20260901073017 58 310 0.0 0.0 0.00 0.00 0.00 90 1007.2
20260901071518 59 310 0.0 0.0 0.00 0.00 0.00 90 1007.2
20260901070014 59 310 0.0 0.0 0.00 0.00 0.00 90 1007.2
20260901064513 59 310 0.0 0.0 0.00 0.00 0.00 90 1007.2
20260901063018 60 310 0.0 0.0 0.00 0.00 0.00 89 1007.0
20260901061511 60 310 0.0 0.0 0.00 0.00 0.00 89 1007.0
20260901060011 61 310 0.0 0.0 0.00 0.00 0.00 88 1007.1
20260901054509 61 310 0.0 0.0 0.00 0.00 0.00 88 1007.2
20260901053009 62 310 0.0 0.0 0.00 0.00 0.00 87 1007.2
20260901051526 62 310 0.0 0.0 0.00 0.00 0.00 86 1007.3
20260901050007 62 310 0.0 0.0 0.00 0.00 0.00 85 1007.4
20260901044507 62 310 0.0 0.0 0.00 0.00 0.00 84 1007.4
20260901043006 63 310 0.0 0.0 0.00 0.00 0.00 82 1007.4
20260901041509 63 310 0.0 0.0 0.00 0.00 0.00 80 1007.4
20260901040005 64 310 0.0 0.0 0.00 0.00 0.00 80 1007.3
20260901034505 64 310 0.0 0.0 0.00 0.00 0.00 79 1007.2
20260901033005 65 310 0.0 0.0 0.00 0.00 0.00 77 1007.2
20260901031502 66 310 0.0 0.0 0.00 0.00 0.00 74 1007.2
20260901030003 67 310 0.0 0.0 0.00 0.00 0.00 71 1007.3
20260901024502 68 318 0.0 0.0 0.00 0.00 0.00 69 1007.4
20260901023100 68 5 0.0 0.0 0.00 0.00 0.00 68 1007.5
20260901021558 69 5 0.0 0.0 0.00 0.00 0.00 67 1007.7
20260901020057 69 5 0.0 2.0 0.00 0.00 0.00 65 1007.7
20260901014600 69 91 0.0 6.0 0.00 0.00 0.00 64 1007.7
20260901013057 70 352 0.0 4.0 0.00 0.00 0.00 61 1007.9
20260901011553 70 329 0.0 3.0 0.00 0.00 0.00 64 1008.0
20260901010054 71 51 0.0 3.0 0.00 0.00 0.00 62 1008.1
20260901004551 71 330 0.0 3.0 0.00 0.00 0.00 60 1008.2
20260901003049 71 294 0.0 3.0 0.00 0.00 0.00 59 1008.4